This demonstration page uses our WeatherBlox Daily Observations layout. Learn more.

Left ArrowRight Arrow

Hourly Observations for May 27, 2022

Temp ( °F °C ) Dew Point ( °F °C ) Humidity (%) Winds ( mph kmh ) Pressure ( in mb ) Visibility ( mi km ) Precip ( " mm )
12:56 am 00:56 Clear 58 14.4 48 8.9 70 70 SSW 6 9 29.94 1014 10 16 0.00 0.00
1:56 am 01:56 Clear 57 13.9 48 8.9 72 72 SW 8 13 29.95 1014 10 16 0.00 0.00
2:56 am 02:56 Clear 56 13.3 47 8.3 72 72 SW 7 11 29.95 1014 10 16 0.00 0.00
3:56 am 03:56 Clear 56 13.3 47 8.3 72 72 SW 6 9 29.95 1014 10 16 0.00 0.00
4:56 am 04:56 Clear 57 13.9 48 8.9 72 72 SW 9 15 29.94 1014 10 16 0.00 0.00
5:56 am 05:56 Clear 55 12.8 48 8.9 77 77 SW 5 7 29.94 1014 10 16 0.00 0.00
6:56 am 06:56 Sunny 56 13.3 48 8.9 75 75 SW 9 15 29.94 1014 10 16 0.00 0.00
7:56 am 07:56 Sunny 60 15.6 50 10 70 70 SSW 10 17 29.95 1014 10 16 0.00 0.00
8:56 am 08:56 Sunny 65 18.3 53 11.7 66 66 SSW 10 17 29.94 1014 10 16 0.00 0.00
9:56 am 09:56 Sunny 72 22.2 53 11.7 52 52 S 8 13 29.93 1014 10 16 0.00 0.00
10:56 am 10:56 Sunny 76 24.4 53 11.7 45 45 SSW 12 19 29.92 1013 10 16 0.00 0.00
11:56 am 11:56 Sunny 81 27.2 52 11.1 37 37 SSW 17 28 29.88 1012 10 16 0.00 0.00
12:56 pm 12:56 Sunny 84 28.9 50 10 31 31 SSW 16 26 29.86 1011 10 16 0.00 0.00
1:56 pm 13:56 Sunny 86 30 52 11.1 31 31 S 16 26 29.83 1010 10 16 0.00 0.00
2:56 pm 14:56 Sunny 88 31.1 48 8.9 25 25 SSW 10 17 29.80 1009 10 16 0.00 0.00
3:56 pm 15:56 Sunny 89 31.7 51 10.6 27 27 SSW 17 28 29.78 1009 10 16 0.00 0.00
4:56 pm 16:56 Sunny 87 30.6 53 11.7 31 31 S 18 30 29.76 1008 10 16 0.00 0.00
5:56 pm 17:56 Sunny 87 30.6 55 12.8 34 34 S 22 35 29.74 1007 10 16 0.00 0.00
6:56 pm 18:56 Sunny 86 30 56 13.3 36 36 S 22 35 29.72 1006 10 16 0.00 0.00
7:56 pm 19:56 Sunny 81 27.2 55 12.8 41 41 S 21 33 29.71 1006 10 16 0.00 0.00
8:56 pm 20:56 Sunny 77 25 56 13.3 48 48 SSE 16 26 29.71 1006 10 16 0.00 0.00
9:56 pm 21:56 Clear 74 23.3 57 13.9 56 56 SSE 17 28 29.71 1006 10 16 0.00 0.00
10:56 pm 22:56 Clear 72 22.2 57 13.9 59 59 SSE 16 26 29.72 1007 10 16 0.00 0.00
11:56 pm 23:56 Clear 73 22.8 57 13.9 57 57 S 8 13 29.75 1007 8 13 0.00 0.00

Powered by AerisWeather